This demonstration page uses our WeatherBlox Daily Observations layout. Learn more.

Left ArrowRight Arrow

34.16533, -84.80231

Hourly Observations for June 6, 2019

Temp ( °F °C ) Dew Point ( °F °C ) Humidity (%) Winds ( mph kmh ) Pressure ( in mb ) Visibility ( mi km ) Precip ( " mm )
12:53 am 00:53 Clear with Mist and Fog 73 22.8 70 21.1 90 90 Calm 29.92 1013 6 10 0.00 0.00
1:53 am 01:53 Mostly Cloudy with Mist and Fog 71 21.7 70 21.1 96 96 Calm 29.93 1013 6 10 0.00 0.00
2:53 am 02:53 Cloudy with Mist and Fog 71 21.7 70 21.1 96 96 Calm 29.91 1013 5 8 0.00 0.00
3:46 am 03:46 Cloudy with Light Rain 71 21.7 70 21.1 96 96 Calm 29.92 1013 3 4 0.04 1.02
3:53 am 03:53 Cloudy with Light Rain 71 21.7 70 21.1 96 96 Calm 29.91 1013 5 8 0.04 1.02
4:53 am 04:53 Mostly Cloudy with Mist and Fog 70 21.1 69 20.6 97 97 Calm 29.90 1013 4 6 0.00 0.03
5:53 am 05:53 Cloudy 70 21.1 68 20 93 93 Calm 29.91 1013 7 11 0.00 0.00
7:53 am 07:53 Cloudy 69 20.6 68 20 96 96 Calm 29.92 1013 9 14 0.01 0.25
8:53 am 08:53 Cloudy with Light Rain 70 21.1 68 20 93 93 Calm 29.93 1014 8 13 0.01 0.25
9:53 am 09:53 Cloudy with Light Rain 71 21.7 68 20 90 90 Calm 29.93 1014 10 16 0.01 0.25
10:53 am 10:53 Cloudy 72 22.2 68 20 87 87 Calm 29.93 1014 10 16 0.00 0.03
11:53 am 11:53 Partly Cloudy 74 23.3 67 19.4 79 79 S 5 7 29.93 1014 10 16 0.00 0.00
12:53 pm 12:53 Cloudy 75 23.9 67 19.4 76 76 Calm 29.92 1013 10 16 0.00 0.00
1:53 pm 13:53 Mostly Cloudy 77 25 67 19.4 71 71 S 5 7 29.91 1013 10 16 0.00 0.03
2:53 pm 14:53 Cloudy 76 24.4 67 19.4 74 74 SSE 6 9 29.90 1013 10 16 0.00 0.00
3:53 pm 15:53 Cloudy with Light Rain 75 23.9 68 20 79 79 SSE 3 6 29.89 1012 10 16 0.00 0.03
4:53 pm 16:53 Cloudy 76 24.4 68 20 77 77 S 5 7 29.87 1012 10 16 0.00 0.03
5:53 pm 17:53 Cloudy 75 23.9 68 20 79 79 S 6 9 29.86 1011 10 16 0.00 0.03
6:05 pm 18:05 Cloudy 75 23.9 68 20 79 79 VRB 5 7 29.86 1011 10 16 0.00 0.00
6:53 pm 18:53 Cloudy 74 23.3 68 20 82 82 S 3 6 29.85 1011 10 16 0.00 0.00
7:53 pm 19:53 Cloudy 73 22.8 68 20 84 84 Calm 29.84 1011 10 16 0.00 0.00
8:53 pm 20:53 Cloudy 72 22.2 69 20.6 91 91 Calm 29.84 1010 10 16 0.00 0.00
9:53 pm 21:53 Mostly Cloudy 72 22.2 69 20.6 91 91 Calm 29.83 1010 10 16 0.00 0.00
10:53 pm 22:53 Cloudy 72 22.2 69 20.6 91 91 Calm 29.83 1010 10 16 0.00 0.00
11:53 pm 23:53 Cloudy 72 22.2 68 20 87 87 Calm 29.83 1010 10 16 0.00 0.00

Powered by AerisWeather